EHI
0 0 0 0 0 0 0 0 0 0 0 0 0 0 0 0 0 0 0 0 0 0 0 0 0 0 0 0 0 0 0 0 0 0 0 0 0 0 0 0 0 0 0
0 0 0 0 0 0 0 0 0 0 0 0 0 0 0 0 0 0 0 0 0 0 0 0 0 0 0 0 0 0 0 0 0 0 0 0 0 0 0 0 0 0 0
0 0 0 0 0 0 0 0 0 0 0 0 0 0 0 0 0 0 0 0 0 0 0 0 0 0 0 0 0 0 0 0 0 0 0 0 0 0 0 0 0 0 0
0 0 0 0 0 0 0 0 0 0 0 0 0 0 0 0 0 0 0 0 0 0 0 0 0 0 0 0 0 0 0 0 0 0 0 0 0 0 0 0 0 0 0
0 0 0 0 0 0 0 0 0 0 0 0 0 0 0 0 0 0 0 0 0 0 0 0 0 0 0 0 0 0 0 0 0 0 0 0 0 0 0 0 0 0 0
0 0 0 0 0 0 0 0 0 0 0 0 0 0 0 0 0 0 0 0 0 0 0 0 0 0 0 0 0 0 0 0 0 0 0 0 0 0 0 0 0 0 0
0 0 0 0 0 0 0 0 0 0 0 0 0 0 0 0 0 0 0 0 0 0 0 0 0 0 0 0 0 0 0 0 0 0 0 0 0 0 0 0 0 0 0
0 0 0 0 0 0 0 0 0 0 0 0 0 0 0 0 0 0 0 0 0 0 0 0 0 0 0 0 0 0 0 0 0 0 0 0 0 0 0 0 0 0 0
0 0 0 0 0 0 0 0 0 0 0 0 0 0 0 0 0 0 0 0 0 0 0 0 0 0 0 0 0 0 0 0 0 0 0 0 0 0 0 0 0 0 0
0 0 0 0 0 0 0 0 0 0 0 0 0 0 0 0 0 0 0 0 0 0 0 0 0 0 0 0 0 0 0 0 0 0 0 0 0 0 0 0 0 0 0
0 0 0 0 0 0 0 0 0 0 0 0 0 0 0 0 0 0 0 0 0 0 0 0 0 0 0 0 0 0 0 0 0 0 0 0 0 0 0 0 0 0 0
0 0 0 0 0 0 0 0 0 0 0 0 0 0 0 0 0 0 0 0 0 0 0 0 0 0 0 0 0 0 0 0 0 0 0 0 0 0 0 0 0 0 0
0 0 0 0 0 0 0 0 0 0 0 0 0 0 0 0 0 0 0 0 0 0 0 0 0 0 0 0 0 0 0 0 0 0 0 0 0 0 0 0 0 0 0
0 0 0 0 0 0 0 0 0 0 0 0 0 0 0 0 0 0 0 0 0 0 0 0 0 0 0 0 0 0 0 0 0 0 0 0 0 0 0 0 0 0 0
0 0 0 0 0 0 0 0 0 0 0 0 0 0 0 0 0 0 0 0 0 0 0 0 0 0 0 0 0 0 0 0 0 0 0 0 0 0 0 0 0 0 0
0 0 0 0 0 0 0 0 0 0 0 0 0 0 0 0 0 0 0 0 0 0 0 0 0 0 0 0 0 0 0 0 0 0 0 0 0 0 0 0 0 0 0
0 0 0 0 0 0 0 0 0 0 0 0 0 0 0 0 0 0 0 0 0 0 0 0 0 0 0 0 0 0 0 0 0 0 0 0 0 0 0 0 0 0 0
0 0 0 0 0 0 0 0 0 0 0 0 0 0 0 0 0 0 0 0 0 0 0 0 0 0 0 0 0 0 0 0 0 0 0 0 0 0 0 0 0 0 0
0 0 0 0 0 0 0 0 0 0 0 0 0 0 0 0 0 0 0 0 0 0 0 0 0 0 0 0 0 0 0 0 0 0 0 0 0 0 0 0 0 0 0
0 0 0 0 0 0 0 0 0 0 0 0 0 0 0 0 0 0 0 0 0 0 0 0 0 0 0 0 0 0 0 0 0 0 0 0 0 0 0 0 0 0 0
0 0 0 0 0 0 0 0 0 0 0 0 0 0 0 0 0 0 0 0 0 0 0 0 0 0 0 0 0 0 0 0 0 0 0 0 0 0 0 0 0 0 0
0 0 0 0 0 0 0 0 0 0 0 0 0 0 0 0 0 0 0 0 0 0 0 0 0 0 0 0 0 0 0 0 0 0 0 0 0 0 0 0 0 0 0
0 0 0 0 0 0 0 0 0 0 0 0 0 0 0 0 0 0 0 0 0 0 0 0 0 0 0 0 0 0 0 0 0 0 0 0 0 0 0 0 0 0 0
0 0 0 0 0 0 0 0 0 0 0 0 0 0 0 0 0 0 0 0 0 0 0 0 0 0 0 0 0 0 0 0 0 0 0 0 0 0 0 0 0 0 0
0 0 0 0 0 0 0 0 0 0 0 0 0 0 0 0 0 0 0 0 0 0 0 0 0 0 0 0 0 0 0 0 0 0 0 0 0 0 0 0 0 0 0
0 0 0 0 0 0 0 0 0 0 0 0 0 0 0 0 0 0 0 0 0 0 0 0 0 0 0 0 0 0 0 0 0 0 0 0 0 0 0 0 0 0 0
Wind_Speed
6 8 17 17 16 15 14 13 13 12 12 12 13 13 13 13 13 13 13 13 13 13 14 14 14 14 14 14 14 14 15 16 16 16 16 16 15 15 15 15 14 10 16
11 12 20 18 17 15 14 14 13 12 12 13 13 13 13 13 12 12 12 12 12 13 13 13 13 13 13 13 13 13 13 14 14 15 15 13 14 15 15 14 14 10 15
14 13 17 19 18 16 15 14 13 13 13 12 12 12 12 12 12 12 11 11 11 12 12 12 12 13 12 12 12 12 12 13 13 14 13 8 8 13 13 13 13 13 13
16 12 13 20 18 17 16 15 14 13 12 12 12 12 12 11 11 11 11 11 10 11 11 11 11 11 11 10 10 11 11 12 12 12 7 6 6 11 12 12 12 12 12
13 11 14 21 19 18 17 15 14 13 13 12 11 11 11 11 10 10 10 10 10 10 10 10 10 10 10 9 9 9 10 12 12 10 6 6 5 9 10 11 10 10 10
12 11 14 21 20 18 17 16 15 14 13 12 12 11 11 10 10 9 9 9 9 9 9 9 9 9 8 8 8 8 9 11 9 5 5 5 5 7 9 8 8 9 9
13 11 13 21 20 19 18 17 15 14 13 12 11 11 10 10 9 8 8 7 7 7 7 7 7 7 7 6 6 7 8 9 6 4 4 4 4 6 7 7 7 7 7
15 12 12 21 20 19 18 17 16 14 14 13 12 11 10 10 9 8 7 7 6 6 5 5 5 5 5 5 5 5 6 6 5 4 3 3 4 5 5 5 5 5 5
12 11 10 12 15 18 18 17 16 15 14 13 12 11 10 9 9 8 7 6 5 4 4 3 3 3 3 3 4 4 5 5 4 2 2 2 4 4 4 3 4 4 4
10 10 10 9 9 9 10 15 16 15 14 13 12 11 10 10 8 8 7 6 5 4 3 2 1 0 1 2 3 4 4 4 3 2 2 3 6 6 6 5 5 5 6
10 9 9 9 8 8 8 11 13 13 13 12 10 11 9 4 4 4 6 7 6 5 4 3 3 2 3 3 5 5 4 1 2 2 2 6 8 9 9 9 9 9 9
12 11 10 10 9 9 7 6 6 6 6 6 5 6 4 4 4 4 7 9 8 7 5 5 5 4 3 1 4 6 2 2 2 3 4 10 11 12 12 11 11 12 12
13 13 12 11 10 9 6 5 4 3 4 5 6 6 4 4 3 3 2 3 4 4 2 3 3 2 2 2 3 3 4 3 2 3 5 11 13 14 14 14 14 14 14
11 14 13 11 10 9 7 5 5 4 4 4 5 6 5 3 3 3 2 3 2 2 2 2 2 3 4 4 5 5 5 4 4 3 5 13 15 16 17 17 17 17 17
11 13 13 12 11 9 7 6 6 5 5 5 5 5 6 4 4 4 3 3 3 3 3 3 4 4 5 5 5 5 6 6 6 5 5 13 16 18 19 19 19 19 19
11 12 13 13 12 10 8 6 6 5 5 5 5 6 7 5 4 4 4 4 4 4 4 4 5 5 4 4 5 5 6 6 6 6 6 9 17 19 20 21 21 21 21
10 10 12 13 11 11 9 8 6 5 5 5 4 5 6 5 5 5 4 4 4 4 4 3 4 3 3 4 5 5 5 5 6 7 7 6 7 15 20 22 22 22 22
8 9 11 11 11 10 8 7 5 5 5 4 4 4 6 6 5 4 4 4 4 3 3 3 3 3 3 3 4 4 4 4 6 7 6 6 6 6 12 20 22 23 23
8 9 9 10 11 9 8 6 5 4 4 3 3 3 4 5 5 4 3 3 3 2 2 2 2 2 3 4 4 4 4 5 6 7 8 8 7 7 6 13 20 22 22
6 8 8 9 8 8 6 4 3 3 2 2 2 3 4 3 3 3 2 3 2 2 2 2 2 2 2 3 4 5 5 6 5 6 8 7 6 7 6 7 8 12 19
6 7 7 8 7 7 5 4 4 3 2 1 1 2 2 2 2 2 2 2 2 2 2 2 2 2 2 1 2 4 5 5 5 5 5 5 6 6 6 6 5 5 7
6 6 7 8 7 7 5 4 3 3 2 1 1 1 1 1 1 2 2 2 2 1 2 2 1 1 2 1 1 3 5 5 4 3 3 4 5 4 5 5 5 6 6
6 6 7 7 7 7 6 5 4 4 3 2 1 0 0 0 1 1 2 2 1 1 2 2 2 3 3 2 2 2 3 4 4 4 4 4 4 4 4 5 6 6 7
5 5 7 7 7 6 6 6 6 4 3 2 1 1 1 0 0 1 1 1 1 1 2 2 2 2 2 3 2 3 5 4 4 5 3 4 5 6 6 6 6 7 8
6 6 6 7 6 6 6 7 6 4 3 2 1 1 1 1 1 0 1 1 1 1 2 3 2 2 3 3 3 3 3 3 5 6 9 5 4 5 6 7 7 7 8
5 6 6 7 6 5 6 6 7 6 5 4 2 1 0 1 1 1 0 0 1 2 3 3 3 4 4 4 4 4 4 4 4 5 8 9 8 6 6 6 7 7 7
Wind_Direction
189 183 171 160 156 151 145 136 129 125 120 115 112 108 102 97 94 90 86 81 77 73 71 71 70 70 69 67 67 66 64 62 59 57 57 61 65 65 63 60 54 45 52
163 172 167 162 158 155 151 141 134 128 125 119 114 111 106 102 97 92 87 83 80 76 73 72 72 71 70 68 67 68 68 66 64 59 53 49 60 64 62 59 58 55 55
153 166 164 163 160 158 153 144 139 133 129 123 119 115 111 106 101 95 90 86 83 79 76 74 73 72 71 70 67 66 65 65 66 61 49 27 39 62 63 60 57 56 54
156 162 161 164 162 160 154 149 145 139 135 130 126 121 117 112 106 100 95 92 89 85 81 79 76 75 72 71 68 64 62 64 66 59 39 24 21 59 61 59 59 58 55
156 159 165 165 164 162 157 154 150 147 141 137 134 127 122 116 111 106 101 97 93 90 87 83 79 77 75 74 70 65 63 65 64 54 36 23 12 55 57 54 54 55 55
156 158 168 166 166 164 161 157 155 153 148 144 141 135 129 123 117 111 106 102 99 95 91 87 83 79 77 74 70 63 63 64 55 39 35 20 4 49 55 52 50 49 49
157 161 170 168 168 167 164 161 160 158 156 152 149 144 138 132 127 122 117 111 107 102 96 91 86 83 78 73 67 58 54 56 56 39 28 15 4 39 44 43 41 41 40
160 163 169 171 170 170 168 166 165 164 162 159 157 153 148 143 139 137 132 126 118 109 101 95 88 81 74 64 55 46 42 46 48 36 15 355 2 21 29 24 18 17 20
161 163 169 171 171 173 172 170 169 169 168 166 165 162 160 156 154 151 147 143 138 129 117 102 88 75 59 43 31 24 21 31 48 9 343 321 320 334 344 345 337 336 338
163 166 168 167 167 170 172 173 172 173 174 173 172 168 166 167 169 167 163 167 167 164 162 158 141 42 358 346 345 346 352 16 13 340 319 288 291 298 304 303 300 300 300
168 171 169 166 166 167 169 177 174 176 178 178 174 171 168 161 164 170 175 189 194 197 206 220 242 265 282 300 304 309 331 343 319 301 291 284 286 288 291 291 289 287 286
176 179 174 171 169 169 174 173 171 173 175 171 161 165 157 161 172 177 195 204 210 214 226 244 254 268 284 295 298 300 301 280 274 269 269 280 286 287 288 288 285 283 282
178 179 179 176 172 171 170 166 165 163 164 163 166 166 163 167 178 186 192 217 221 223 235 269 290 289 263 251 261 267 259 258 254 257 265 278 285 288 289 288 286 283 281
176 183 180 178 174 173 169 169 167 166 169 172 176 174 168 173 184 186 191 199 199 204 216 238 250 256 258 255 250 254 254 247 247 248 258 270 280 286 289 289 288 285 283
181 183 181 178 176 173 168 173 173 175 177 181 181 183 179 179 188 189 196 199 204 205 211 225 235 244 248 252 249 245 249 249 250 248 257 269 277 282 285 286 286 285 284
183 180 178 179 177 171 171 172 174 177 178 180 184 188 185 183 186 189 198 204 211 213 216 219 226 232 239 243 252 249 247 249 250 252 250 265 273 279 283 284 285 286 285
180 171 172 176 172 170 169 170 169 173 173 180 187 191 190 187 190 194 200 208 217 216 218 224 234 235 247 249 256 259 256 253 256 258 259 254 264 274 280 283 285 286 286
162 158 166 169 166 167 166 164 164 168 172 184 187 192 198 198 196 196 203 216 219 213 211 221 230 240 250 255 261 266 265 266 266 264 263 261 257 263 274 280 284 286 286
155 151 153 156 161 162 158 155 155 159 168 176 178 186 197 201 196 193 207 221 217 212 217 231 233 233 256 266 270 272 270 268 268 271 270 269 264 261 260 276 282 284 286
137 137 139 145 151 146 138 130 121 122 137 145 161 180 183 189 190 188 204 221 211 214 236 242 252 253 254 267 286 287 277 270 267 266 271 277 275 270 267 268 276 282 284
120 127 133 138 145 141 137 137 135 142 139 130 153 175 183 187 187 186 200 216 210 218 237 246 254 273 277 276 312 306 289 278 277 271 273 279 283 283 282 277 274 272 283
131 130 132 138 143 144 140 137 134 134 130 128 116 113 163 179 188 188 198 214 220 229 262 263 243 267 276 230 233 315 319 324 325 291 283 275 277 291 296 297 292 281 275
140 144 140 139 138 136 130 116 96 78 64 59 58 34 316 200 190 189 196 196 210 205 245 258 244 236 266 274 194 213 276 282 301 285 276 273 283 287 287 291 288 284 280
155 143 134 133 131 133 132 134 138 141 155 183 180 202 323 346 184 183 178 175 193 208 244 259 242 226 230 264 264 226 228 240 275 298 289 283 279 275 274 278 280 279 276
147 141 136 130 128 132 131 137 136 136 147 136 110 96 26 358 356 7 156 158 217 248 263 270 273 251 226 236 242 247 254 251 230 259 284 283 280 262 262 265 269 271 271
142 140 139 134 133 135 132 135 140 143 145 136 132 129 74 350 347 348 19 203 260 264 266 265 262 260 250 249 248 239 238 247 251 249 273 286 284 274 259 254 259 264 265